Погода в Тямше

Россия / Псковская область     57°44′36″N   28°08′59″E
темп.,
°C
ветер,
м/с
пор.,
м/с
влажн.,
%
обл.,
%
осадки,
мм/ч
давл.,
гПа
погр.,
м
13 мая, чт
чт1300:00+13св22746 0.0 101623
03:00+14св28765 0.0 1013225
06:00+14в4118759 0.1 1012427
09:00+16юв69653 0.1 10121203
12:00+17юв68500 0.0 10121596
15:00+19юв684396 0.0 10112531
18:00+18вюв485059 0.0 10101970
21:00+13вюв41181100 0.1 1010714
14 мая, пт
пт1400:00+10вюв499370 0.0 1009346
03:00+8вюв379816 0.0 1009211
06:00+7вюв279634 0.0 1009220
09:00+12вюв5972100 0.0 1009674
12:00+11юв51090100 0.4 1009670
15:00+15юв61279100 0.6 10081383
18:00+14ююв5108495 0.3 1008766
21:00+12вюв398694 0.3 1007339
15 мая, сб
сб1500:00+11вюв3109162 0.1 1006272
03:00+10вюв269493 0.3 1005126
06:00+10вюв2596100 0.3 1005141
09:00+13ююв2489100 0.6 1005285
12:00+16ююв2380100 0.1 1005574
15:00+17з357655 2.0 1005770
18:00+20сз245224 0.1 10041512
21:00+13зсз49676 0.1 1006312
16 мая, вс
вс1600:00+9зсз238166 0.0 100850
03:00+8зсз118799 0.0 101011
06:00+9ююв1185100 0.0 101126
09:00+14ююв236570 0.0 1011415
12:00+16ю346297 0.0 1012805
15:00+20ююв3451100 0.0 10111326
18:00+18юв356626 0.3 1010761
21:00+14вюв3790100 0.8 1010153
17 мая, пн
пн1700:00+12юв379571 0.0 1010133
03:00+11юв379738 0.0 1010133
06:00+11юв3109467 0.0 1009226
09:00+17юв5107697 0.0 1009549
12:00+21ююв6105775 0.3 10081719
15:00+21ю61066100 1.3 10071518
18:00+16ююз61093100 5.8 1007897
21:00+13юз2497100 7.8 1007185